EXPRESS-AT2

Last updated on May 21, 2019, 3:10 a.m. UTC

1 39613U 14010B   19140.86288644 -.00000290  00000-0  00000+0 0  9990
2 39613   0.0187 289.6613 0000860 171.9233 227.1144  1.00272214 18969
UTC
Height (km)
Latitude
Longitude
Inclination
Orbital Period
UTC large
Height (km)
Speed (km/s)
/
Latitude / Longitude
Inclination (degrees)
Orbital Period (minutes)
Azimuth
Elevation
Range (km)
Doppler Factor
iOS Compass Heading
iOS Angle

Next 30 passes for location: Hong Kong

Rise time Rise Azimuth (degrees) Set time Set Azimuth (degrees) Duration Max altitude (degrees)

No matching passes for this satellites